This demonstration page uses our WeatherBlox Daily Observations layout. Learn more.

38.89511, -77.03637

Hourly Observations for August 10, 2015

Temp ( °F °C ) Dew Point ( °F °C ) Humidity (%) Winds ( mph kmh ) Pressure ( in mb ) Visibility ( mi km ) Precip ( " mm )
12:52 am 00:52 Cloudy 79 26 66 19 65 65 SSE 9 15 30 1016 10 16.09344 0 0
1:52 am 01:52 Cloudy 79 26 66 19 65 65 S 8 13 30.03 1017 10 16.09344 0 0
2:52 am 02:52 Cloudy with Light Rain 75 24 66 19 74 74 WSW 6 9 30.03 1017 8 12.874752 0.001 0.001
3:52 am 03:52 Cloudy with Light Rain 75 24 70 21 83 83 SW 7 11 30 1016 10 16.09344 0.001 0.001
4:52 am 04:52 Cloudy with Light Rain 73 23 68 20 83 83 S 10 17 30.03 1017 10 16.09344 0.08 2.032
5:14 am 05:14 Cloudy with Light Rain 73 23 68 20 83 83 SSE 9 15 30 1016 6 9.656064 0 0
5:34 am 05:34 Cloudy 73 23 68 20 83 83 SSE 10 17 30 1016 10 16.09344 0 0
5:44 am 05:44 Cloudy 73 23 68 20 83 83 SSE 9 15 30.03 1017 10 16.09344 0 0
5:52 am 05:52 Cloudy 73 23 68 20 83 83 SSE 9 15 30.03 1017 10 16.09344 0.02 0.508
6:52 am 06:52 Cloudy 72 22 68 20 88 88 SSE 9 15 30.03 1017 10 16.09344 0 0
7:52 am 07:52 Cloudy 72 22 66 19 83 83 S 10 17 30.03 1017 10 16.09344 0 0
8:52 am 08:52 Cloudy 73 23 68 20 83 83 S 10 17 30.03 1017 10 16.09344 0 0
9:08 am 09:08 Cloudy 73 23 66 19 78 78 S 10 17 30.03 1017 10 16.09344 0 0
9:52 am 09:52 Cloudy 73 23 66 19 78 78 S 10 17 30.03 1017 10 16.09344 0 0
10:52 am 10:52 Cloudy 73 23 66 19 78 78 SSE 8 13 30.03 1017 10 16.09344 0 0
11:42 am 11:42 Cloudy 73 23 66 19 78 78 SSE 10 17 30.03 1017 10 16.09344 0 0
11:52 am 11:52 Cloudy 75 24 66 19 74 74 S 8 13 30.03 1017 10 16.09344 0 0
12:38 pm 12:38 Cloudy 75 24 66 19 74 74 S 12 19 30.03 1017 10 16.09344 0 0
12:52 pm 12:52 Cloudy 75 24 66 19 74 74 S 10 17 30.03 1017 10 16.09344 0 0
1:52 pm 13:52 Cloudy 79 26 66 19 65 65 S 15 24 30.03 1017 10 16.09344 0 0
2:46 pm 14:46 Cloudy 75 24 66 19 74 74 S 17 28 30 1016 10 16.09344 0 0
2:52 pm 14:52 Cloudy 75 24 66 19 74 74 S 17 28 30 1016 10 16.09344 0 0
2:59 pm 14:59 Cloudy 75 24 66 19 74 74 S 15 24 30 1016 10 16.09344 0 0
3:35 pm 15:35 Cloudy 75 24 66 19 74 74 S 14 22 29.97 1015 10 16.09344 0 0
3:52 pm 15:52 Cloudy 75 24 66 19 74 74 S 15 24 29.97 1015 10 16.09344 0 0
3:56 pm 15:56 Cloudy 75 24 66 19 74 74 S 20 31 29.97 1015 10 16.09344 0 0
4:52 pm 16:52 Cloudy 75 24 66 19 74 74 SSE 9 15 29.97 1015 10 16.09344 0 0
5:52 pm 17:52 Cloudy 75 24 66 19 74 74 S 12 19 29.94 1014 10 16.09344 0 0
6:14 pm 18:14 Cloudy with Light Rain 75 24 66 19 74 74 SSE 14 22 29.94 1014 10 16.09344 0 0
6:28 pm 18:28 Cloudy 75 24 66 19 74 74 SSE 12 19 29.94 1014 10 16.09344 0 0
6:52 pm 18:52 Cloudy 73 23 68 20 83 83 SSE 13 20 29.94 1014 10 16.09344 0.001 0.001
7:52 pm 19:52 Cloudy 73 23 70 21 89 89 SSE 10 17 29.94 1014 10 16.09344 0 0
8:19 pm 20:19 Cloudy 73 23 70 21 89 89 SSE 8 13 29.91 1013 10 16.09344 0 0
8:52 pm 20:52 Cloudy 73 23 70 21 89 89 SSE 9 15 29.91 1013 10 16.09344 0 0
9:19 pm 21:19 Cloudy with Light Rain 73 23 70 21 89 89 SSE 8 13 29.94 1014 10 16.09344 0.001 0.001
9:37 pm 21:37 Cloudy 73 23 70 21 89 89 S 9 15 29.94 1014 10 16.09344 0.001 0.001
9:42 pm 21:42 Cloudy with Light Rain 73 23 70 21 89 89 S 13 20 29.94 1014 10 16.09344 0 0
9:52 pm 21:52 Cloudy 73 23 70 21 89 89 S 12 19 29.94 1014 10 16.09344 0.001 0.001
9:58 pm 21:58 Cloudy 75 24 70 21 83 83 S 13 20 29.94 1014 10 16.09344 0 0
10:34 pm 22:34 Cloudy with Light Rain 75 24 70 21 83 83 S 12 19 29.91 1013 10 16.09344 0 0
10:52 pm 22:52 Cloudy with Light Drizzle 75 24 70 21 83 83 SSE 12 19 29.91 1013 10 16.09344 0.001 0.001
11:52 pm 23:52 Cloudy with Light Rain 73 23 70 21 89 89 SSE 8 13 29.91 1013 7 11.265408 0.04 1.016

Powered by AerisWeather